Location: Casa Rossa
(45.2389°N, 12.2056°E)
Time: 23:51:30
(UTC+00:00)

Cosmos 1023 Rocket - Pass Details

Date: 14 July 2020
Orbit: 736 x 773 km, 74.1° (Epoch: 14 August)

Event Time Altitude Azimuth Distance (km) Brightness Sun altitude
Exits shadow 01:08:00 35° 198° (SSW) 1,224 5.0 -18.5°
Maximum altitude 01:10:18 88° 110° (ESE) 772 4.4 -18.3°
Drops below altitude 10° 01:15:35 10° 22° (NNE) 2,321 8.3 -17.9°
Sets 01:17:59 0° 22° (NNE) 3,255 9.4 -17.7°
